Location: Unspecified
(52.4292°N, 19.3359°E)
Time: 02:23:04
(UTC+02:00)

Vanguard 1 Rocket - Pass Details

Date: 23 May 2024
Orbit: 649 x 4221 km, 34.3° (Epoch: 13 June)

Event Time Altitude Azimuth Distance (km) Brightness Sun altitude
Rises 07:46:39 0° 202° (SSW) 8,405 12.1 26.4°
Reaches altitude 10° 07:55:09 10° 189° (S) 7,100 11.9 27.7°
Maximum altitude 08:09:11 21° 151° (SSE) 5,270 11.9 29.8°
Drops below altitude 10° 08:19:29 10° 110° (ESE) 5,110 12.6 31.4°
Sets 08:24:01 0° 95° (E) 5,569 12.5 32.1°
